Location: Baumgartsau
(48.4586°N, 14.0864°E)
Time: 17:24:27
(UTC+00:00)

BREEZE M DEB (TANK) - Pass Details

Date: 20 May 2021
Orbit: 296 x 11842 km, 49.5° (Epoch: 19 June)

Event Time Altitude Azimuth Distance (km) Brightness Sun altitude
Rises 21:29:02 0° 299° (WNW) 6,346 8.5 -18.4°
Reaches altitude 10° 21:32:16 10° 292° (WNW) 6,103 8.2 -18.6°
Maximum altitude 21:53:57 42° 232° (SW) 8,038 7.9 -19.8°
Enters shadow 22:42:18 19° 189° (S) 14,593 8.8 -21.2°
